Theta_e
317 318 319 318 319 319 319 319 318 318 317 317 317 317 317 317 316 317 316 316 316 316 316 311 308 307 304 301 299 297 296 295 295 294 294 293 293 293 292 291 290 289 288 287
317 317 318 317 318 318 318 318 318 318 318 314 316 316 316 316 316 316 316 316 315 315 315 312 309 306 303 301 298 297 296 295 295 294 294 294 293 293 292 291 290 289 288 287
317 316 315 316 317 317 317 317 318 318 318 314 314 316 316 316 315 314 314 315 314 314 316 312 309 305 302 300 298 297 296 295 294 294 294 292 291 290 290 290 289 288 287 286
316 316 315 315 316 316 317 317 318 318 318 319 314 318 318 316 316 314 314 313 314 313 313 312 308 305 302 300 298 296 296 295 294 294 293 291 290 291 291 291 290 288 287 286
315 316 315 316 316 316 316 312 315 316 317 318 317 318 317 313 314 313 312 313 315 315 312 310 308 305 302 300 298 296 296 295 294 293 292 291 291 292 292 289 288 287 287 286
314 310 313 315 310 312 311 312 312 312 315 319 317 318 317 316 313 314 314 314 315 313 311 309 307 304 302 299 297 296 295 294 294 293 291 291 291 291 290 289 288 288 287 286
316 315 312 310 313 310 311 315 319 324 324 322 318 317 317 316 313 313 313 314 313 311 310 309 306 303 301 299 297 295 295 294 293 292 291 291 291 290 289 289 288 287 286 285
318 318 316 311 315 318 313 316 322 326 322 321 317 318 316 315 314 313 313 313 311 310 309 308 306 303 300 298 296 295 295 294 293 292 291 290 290 289 288 287 287 286 285 284
316 316 309 311 310 315 314 314 316 322 321 322 316 316 317 314 313 312 311 310 310 309 308 307 305 303 301 298 296 295 294 294 293 292 291 290 289 288 287 286 285 284 283 282
315 316 313 304 306 307 311 311 316 317 323 320 316 318 319 317 313 312 311 310 311 311 309 307 305 303 300 299 297 295 294 293 292 291 290 289 287 286 285 284 283 282 282 281
314 316 313 306 309 313 308 311 310 311 318 320 320 318 312 313 313 313 312 310 311 313 311 308 305 302 300 298 297 295 294 293 292 291 289 288 286 285 284 282 282 281 280 279
313 316 316 315 312 308 311 313 313 315 316 314 315 317 312 313 312 312 312 311 311 311 310 309 307 303 300 298 297 295 294 293 292 291 289 287 285 283 282 281 280 280 279 278
312 315 317 315 311 305 309 311 310 313 313 315 318 317 312 312 312 311 310 310 310 309 308 309 308 304 302 299 297 296 294 293 292 290 288 285 283 281 281 280 279 279 278 277
311 315 316 314 314 312 312 311 311 312 314 314 314 314 313 313 313 313 313 313 312 310 308 308 308 305 303 300 297 295 294 292 291 288 286 283 281 280 280 279 278 277 277 276
311 313 313 313 313 313 311 314 314 311 311 313 313 313 313 313 313 313 312 311 310 310 309 308 306 306 303 298 295 293 293 291 288 286 283 281 280 279 279 278 277 276 276 275
310 313 313 314 313 313 312 312 313 313 313 313 311 311 311 311 311 311 311 311 311 310 309 308 307 304 301 296 295 292 291 289 285 283 282 280 279 278 277 277 276 275 274 274
310 312 313 315 314 314 315 314 314 313 313 312 313 313 313 313 313 312 312 312 311 311 309 306 305 303 299 296 293 291 289 286 282 281 280 279 277 277 276 276 275 274 273 273
311 311 313 316 315 316 313 312 312 313 313 313 313 313 313 313 313 311 312 311 310 308 307 306 305 305 300 296 292 289 286 282 281 280 278 277 276 275 274 274 273 272 272 272
311 312 314 315 316 314 313 313 313 313 314 312 312 312 312 312 310 310 310 309 309 308 308 306 304 303 298 292 289 285 282 280 280 279 277 275 275 274 273 272 272 272 272 272
310 311 312 314 316 317 313 312 311 311 313 311 311 311 311 310 311 311 310 307 306 305 299 297 295 293 291 288 285 281 280 279 279 277 275 274 273 273 272 271 271 271 271 270
311 311 312 314 316 315 312 312 310 315 313 310 310 310 310 310 310 310 306 302 301 299 293 290 288 288 287 283 280 280 279 279 278 276 274 273 272 271 271 271 270 270 269 269
315 314 313 312 314 315 311 312 311 312 312 312 311 310 309 309 308 307 307 305 297 293 288 287 285 283 280 280 280 279 278 277 274 273 272 271 270 270 270 269 269 268 268 268
316 314 315 313 313 310 310 311 311 311 311 311 310 309 309 307 306 306 304 301 295 292 287 284 283 280 279 279 280 278 277 273 272 271 270 269 269 269 268 268 268 268 268 269
300 303 304 303 308 306 305 305 306 310 307 305 306 307 307 307 306 304 300 298 293 289 286 283 280 279 278 278 279 278 272 272 271 270 268 268 268 267 267 267 268 269 269 270
299 300 300 301 303 304 303 306 305 303 304 305 306 306 307 306 304 304 302 300 296 290 284 281 280 279 278 278 277 273 271 270 269 269 268 267 268 267 267 268 268 269 269 269
296 299 301 301 300 301 302 301 298 299 299 300 301 302 302 303 303 302 302 302 299 290 284 281 280 278 277 276 272 271 269 270 269 269 268 268 267 267 267 267 266 266 268 268
Wind_Speed
9 9 17 18 20 22 22 21 22 26 9 11 19 22 23 22 20 22 22 21 21 20 18 22 27 29 29 30 30 30 29 27 25 21 19 15 15 13 12 10 10 7 5 5
6 17 22 18 12 15 19 21 26 23 9 7 17 22 21 21 24 24 23 22 18 16 15 15 24 28 29 30 31 31 30 28 27 23 20 12 17 15 13 12 10 9 8 7
23 19 2 8 16 15 19 21 23 21 13 13 13 16 15 14 17 18 20 20 17 16 13 14 18 28 29 32 33 32 32 30 29 24 21 15 13 12 13 13 11 10 9 9
19 20 21 18 20 18 21 17 19 20 11 12 3 13 14 15 17 13 18 19 14 11 8 13 17 24 31 32 32 34 34 33 32 29 25 24 21 14 14 12 10 10 10 11
12 10 8 15 24 12 13 2 6 10 14 17 15 14 16 7 10 12 18 18 15 6 11 15 16 24 28 31 34 35 34 33 31 32 28 26 21 17 14 11 11 11 12 14
19 1 5 7 3 4 5 3 4 5 7 11 18 18 8 7 6 9 12 15 6 6 11 13 18 22 24 28 32 33 34 33 32 32 31 27 24 19 16 14 13 13 12 10
14 23 6 4 6 4 9 7 6 8 7 17 13 13 16 10 11 14 20 19 6 9 11 13 15 16 22 27 30 30 35 36 35 33 31 29 25 23 20 18 16 13 11 9
8 10 21 14 20 7 15 13 6 13 15 25 2 14 10 14 16 15 16 7 5 9 11 13 15 16 21 24 27 31 34 34 35 33 31 29 26 24 22 21 17 14 12 13
9 11 3 9 2 7 8 9 3 8 3 9 15 22 16 7 12 14 7 5 10 11 12 13 13 17 22 27 33 36 34 34 36 35 33 32 29 27 24 20 18 16 15 14
7 13 6 5 3 4 6 2 5 4 7 18 29 22 16 15 17 11 6 10 12 9 11 11 12 17 23 26 29 32 33 35 35 34 34 33 31 28 23 21 20 18 14 14
10 9 7 7 11 15 7 7 6 4 8 11 20 10 9 11 8 7 8 8 9 6 8 11 13 17 23 23 25 27 31 33 35 36 34 32 30 28 24 23 20 18 15 15
11 4 12 23 9 6 13 20 21 12 17 8 15 28 3 6 2 7 6 6 5 7 10 12 13 16 20 23 24 29 31 34 36 35 33 32 29 28 25 22 19 17 17 16
7 5 6 10 8 4 8 13 12 18 14 25 18 25 11 19 12 7 9 9 9 11 11 12 12 14 14 22 27 28 29 32 33 34 32 30 28 28 27 23 20 20 17 15
6 4 10 19 24 5 10 20 20 21 16 27 27 31 39 31 25 26 22 22 16 15 17 17 13 14 12 21 23 26 27 31 32 33 33 31 29 27 25 23 20 16 14 13
3 17 21 28 33 32 26 15 13 24 27 24 31 24 25 30 27 24 23 28 22 26 21 14 15 15 13 16 23 25 27 31 33 32 32 30 28 27 24 22 18 15 13 12
11 11 18 24 28 31 33 29 30 35 27 28 27 29 32 37 33 31 32 33 22 25 19 18 17 15 14 16 24 26 28 32 33 32 30 28 27 28 26 21 17 14 13 12
7 7 10 19 25 25 22 38 37 37 38 34 31 40 41 37 32 30 32 26 22 21 19 14 12 12 13 19 25 27 29 30 31 30 29 28 29 28 24 20 16 13 11 10
11 17 10 10 8 19 26 22 30 38 38 37 30 33 34 33 33 20 23 18 23 21 19 14 9 9 14 16 20 22 28 30 29 27 27 29 28 25 20 17 14 12 11 10
24 19 10 8 16 21 5 22 21 27 34 26 29 33 37 32 15 24 28 19 18 20 16 8 2 3 13 17 22 25 25 25 27 24 23 25 25 23 20 17 14 12 9 8
27 22 17 12 9 17 22 28 28 16 14 24 30 28 28 25 10 19 23 6 10 8 4 5 7 12 17 18 27 29 26 28 29 28 25 23 21 22 18 15 13 9 8 8
10 15 24 24 21 10 12 18 11 19 17 30 27 24 25 20 16 22 5 4 4 4 5 11 13 11 19 29 31 27 28 28 28 28 31 29 24 21 17 15 12 10 7 7
18 11 12 13 16 23 14 16 23 25 25 20 18 17 14 18 19 14 16 8 9 8 6 8 7 10 19 25 25 19 22 27 29 32 30 27 25 23 20 17 12 9 7 5
22 20 18 14 10 7 8 22 21 23 27 24 18 13 9 8 8 9 9 8 9 9 7 11 9 13 17 24 28 24 26 34 34 32 26 27 23 18 16 15 11 8 8 6
9 14 6 14 12 16 23 23 18 19 18 22 22 17 16 19 19 13 4 6 5 6 9 12 12 12 14 24 26 27 31 32 36 32 29 28 25 18 16 11 10 9 9 6
19 18 24 28 20 20 20 9 7 16 19 20 16 17 17 15 15 11 10 10 9 9 10 17 13 12 15 26 26 31 35 37 30 27 24 21 22 20 16 12 10 8 6 3
15 18 15 18 24 19 21 15 17 17 18 17 16 19 20 17 16 15 14 14 11 11 11 12 13 17 23 28 28 31 35 39 33 25 22 21 20 19 15 13 9 7 6 3
Wind_Direction
199 220 232 239 231 250 276 281 277 274 268 214 243 256 265 273 275 273 271 269 258 255 250 211 215 210 200 200 197 196 194 192 188 187 189 196 200 203 207 207 210 213 222 267
206 233 248 271 288 267 261 264 269 275 289 206 266 267 268 269 266 270 273 270 270 267 231 202 207 204 197 197 198 197 199 195 194 192 194 194 200 208 205 205 210 210 231 253
237 251 110 263 248 250 249 252 260 265 270 221 269 273 255 248 253 260 265 262 268 257 240 196 195 197 198 200 199 199 198 197 196 195 192 190 187 195 203 211 216 220 227 247
253 260 263 254 252 255 260 269 256 265 273 267 136 286 274 288 262 231 265 274 261 232 217 194 192 195 199 202 199 199 200 198 198 195 192 194 198 199 208 199 194 212 238 248
231 229 223 237 247 254 253 310 253 257 257 278 262 271 267 205 261 240 244 257 270 215 199 200 190 197 200 198 199 199 199 200 198 195 196 198 205 204 192 192 205 228 238 248
257 65 229 237 109 238 108 253 248 231 260 253 252 241 287 208 206 233 251 259 232 187 189 194 192 192 197 195 198 197 197 200 199 198 199 201 200 196 193 199 213 223 233 248
225 227 200 181 198 171 202 211 263 246 227 265 268 259 261 280 226 238 258 263 153 177 183 185 185 190 195 194 195 196 200 201 199 200 201 202 201 200 201 203 212 222 235 245
231 241 197 195 218 219 198 210 223 269 271 284 47 265 261 234 239 242 248 250 181 193 194 192 190 193 197 194 196 201 205 203 199 199 200 200 199 199 201 206 211 218 228 240
211 245 136 178 170 194 165 207 273 273 146 278 267 263 253 169 196 220 215 204 225 217 207 201 202 198 197 196 200 203 205 206 201 199 195 197 196 196 199 203 204 216 227 236
245 262 160 135 168 214 233 96 196 200 271 265 279 281 271 254 231 218 234 237 253 221 213 208 205 201 203 203 205 205 205 206 201 199 196 194 192 195 197 198 205 211 220 229
238 233 224 136 201 199 185 222 217 290 233 255 275 269 80 101 103 141 215 225 244 227 209 210 212 207 208 205 204 209 207 204 201 199 195 192 190 192 193 199 207 213 217 226
216 253 234 233 228 272 258 230 217 222 232 228 249 271 122 234 135 157 180 206 246 240 231 225 212 202 207 207 205 206 205 204 201 197 194 192 186 185 190 199 204 210 218 229
166 215 241 261 242 177 212 227 241 234 253 246 241 255 188 263 256 226 230 237 223 225 222 226 211 203 208 205 206 205 203 205 198 194 190 186 181 185 192 195 200 211 219 227
149 214 236 239 248 268 212 224 221 225 231 244 241 257 274 269 276 279 280 273 264 243 237 238 226 220 215 206 202 203 204 200 194 189 188 185 180 185 185 193 203 212 221 229
259 248 241 247 260 269 272 269 250 232 239 241 257 253 260 276 270 275 286 283 281 279 272 254 238 229 219 203 202 198 199 191 186 184 184 185 180 182 183 194 201 207 220 234
237 246 245 249 252 261 264 262 259 257 248 245 249 265 263 261 273 274 273 274 284 281 279 263 257 234 216 203 201 193 190 186 181 182 185 178 175 179 188 190 192 202 216 231
204 211 221 240 235 245 255 244 247 254 254 248 249 246 257 268 259 259 268 280 279 280 284 276 262 247 213 206 195 188 183 176 177 180 179 171 175 181 183 185 191 205 214 228
213 215 221 248 232 231 235 246 239 246 253 257 250 255 256 256 264 274 271 278 277 279 278 275 259 249 210 200 185 172 170 171 174 177 168 171 174 175 177 180 187 199 216 228
218 222 232 226 226 246 221 231 217 226 243 252 253 254 256 264 271 268 260 253 253 266 267 278 317 194 163 165 164 159 161 166 171 171 164 169 173 172 177 180 185 195 204 228
218 218 225 225 232 236 232 237 251 256 239 248 240 247 256 256 235 253 257 217 243 248 163 179 151 140 142 157 157 152 161 169 175 171 165 172 172 179 180 181 184 196 206 238
201 217 224 230 242 246 235 242 247 228 239 230 243 243 254 253 238 258 274 181 194 193 179 148 152 162 159 156 158 163 168 178 174 160 160 165 172 175 179 178 184 196 212 232
209 201 218 234 243 247 216 242 225 243 248 246 248 252 255 258 255 253 257 242 187 198 176 178 151 152 154 161 162 169 166 161 156 154 157 163 172 171 176 180 180 184 203 235
242 244 248 213 238 232 214 226 252 253 260 266 286 308 318 289 279 272 245 232 206 183 169 172 168 153 167 173 172 167 165 154 153 152 154 162 163 163 172 174 173 176 195 207
302 306 318 338 354 321 312 302 300 314 343 329 320 316 315 303 296 290 269 241 209 179 183 174 167 174 174 183 176 171 157 159 155 153 157 161 158 160 167 171 176 178 190 190
272 293 281 284 268 282 297 320 302 301 294 294 293 292 294 294 286 282 273 260 239 206 186 178 184 183 179 176 175 164 160 157 153 150 154 155 152 157 163 168 173 185 186 192
287 287 277 279 295 295 298 317 324 315 305 307 304 299 292 283 275 272 263 259 242 207 187 188 185 182 178 174 165 163 162 157 153 149 153 155 153 153 157 156 155 177 175 189